Retour au catalogue

COSMOS 1684

ActifMilitaireHEO
NORAD 16064·PAYLOAD·🇷🇺 Russia

Lancé Sep 24, 1985 depuis Plesetsk Cosmodrome

Loading…

Prochains Passages (prochaines 24 heures)

TLE

FraisSource: Space-Track

Époque: Sep 8, 2026, 20:10 UTC

1 16064U 85084A   26251.84093758 -.00000623  00000-0  00000-0 0  9994
2 16064  67.7388  78.4884 5243805  93.6389 325.0380  2.00591346300006

Suivez COSMOS 1684 en temps réel avec AllMySat

Download on the App Store